| time (UTC) | temp F | wind direction | speed MPH | gust MPH | rain 1hr in | rain 24hr in | rain mn in | humidity % | barometer mb |
| 20260901063320 | 74 | 277 | 1.0 | 2.0 | 0.00 | 0.00 | 0.00 | 92 | 1016.3 |
| 20260901062815 | 75 | 230 | 0.0 | 1.0 | 0.00 | 0.00 | 0.00 | 91 | 1016.1 |
| 20260901062311 | 75 | 245 | 2.0 | 2.0 | 0.00 | 0.00 | 0.00 | 91 | 1016.3 |
| 20260901061806 | 75 | 232 | 0.0 | 1.0 | 0.00 | 0.00 | 0.00 | 91 | 1016.2 |
| 20260901061301 | 75 | 232 | 0.0 | 1.0 | 0.00 | 0.00 | 0.00 | 91 | 1016.4 |
| 20260901060756 | 75 | 303 | 2.0 | 2.0 | 0.00 | 0.00 | 0.00 | 91 | 1016.6 |
| 20260901060252 | 75 | 224 | 0.0 | 0.0 | 0.00 | 0.00 | 0.00 | 91 | 1016.5 |
| 20260901055746 | 75 | 249 | 0.0 | 1.0 | 0.00 | 0.00 | 0.00 | 90 | 1016.6 |
| 20260901055243 | 75 | 242 | 0.0 | 0.0 | 0.00 | 0.00 | 0.00 | 90 | 1016.3 |
| 20260901054740 | 75 | 242 | 1.0 | 2.0 | 0.00 | 0.00 | 0.00 | 90 | 1016.3 |
| 20260901054236 | 75 | 239 | 0.0 | 1.0 | 0.00 | 0.00 | 0.00 | 90 | 1016.2 |
| 20260901053732 | 75 | 241 | 0.0 | 0.0 | 0.00 | 0.00 | 0.00 | 90 | 1016.3 |
| 20260901053227 | 75 | 239 | 0.0 | 1.0 | 0.00 | 0.00 | 0.00 | 90 | 1016.6 |
| 20260901052722 | 75 | 248 | 0.0 | 1.0 | 0.00 | 0.00 | 0.00 | 90 | 1016.5 |
| 20260901052218 | 75 | 272 | 1.0 | 2.0 | 0.00 | 0.00 | 0.00 | 90 | 1016.4 |
| 20260901051717 | 75 | 241 | 0.0 | 0.0 | 0.00 | 0.00 | 0.00 | 90 | 1016.6 |
| 20260901051217 | 75 | 242 | 1.0 | 1.0 | 0.00 | 0.00 | 0.00 | 89 | 1016.4 |
| 20260901050712 | 75 | 242 | 0.0 | 0.0 | 0.00 | 0.00 | 0.00 | 89 | 1016.4 |
| 20260901050207 | 75 | 242 | 0.0 | 0.0 | 0.00 | 0.00 | 0.00 | 89 | 1016.4 |
| 20260901045702 | 75 | 229 | 0.0 | 0.0 | 0.00 | 0.00 | 0.00 | 89 | 1016.4 |
| 20260901045157 | 75 | 245 | 0.0 | 1.0 | 0.00 | 0.00 | 0.00 | 89 | 1016.3 |
| 20260901044652 | 75 | 236 | 0.0 | 0.0 | 0.00 | 0.00 | 0.00 | 89 | 1016.3 |
| 20260901044148 | 75 | 242 | 0.0 | 0.0 | 0.00 | 0.00 | 0.00 | 88 | 1016.2 |
| 20260901043644 | 75 | 188 | 1.0 | 1.0 | 0.00 | 0.00 | 0.00 | 88 | 1016.3 |
| 20260901043140 | 75 | 242 | 1.0 | 1.0 | 0.00 | 0.00 | 0.00 | 88 | 1016.2 |
| 20260901042638 | 75 | 220 | 1.0 | 1.0 | 0.00 | 0.00 | 0.00 | 88 | 1016.0 |
| 20260901042134 | 75 | 211 | 0.0 | 1.0 | 0.00 | 0.00 | 0.00 | 88 | 1016.1 |
| 20260901041630 | 75 | 214 | 0.0 | 1.0 | 0.00 | 0.00 | 0.00 | 87 | 1016.2 |
| 20260901041124 | 75 | 236 | 0.0 | 1.0 | 0.00 | 0.00 | 0.00 | 87 | 1016.4 |
| 20260901040624 | 75 | 241 | 0.0 | 1.0 | 0.00 | 0.00 | 0.00 | 87 | 1016.3 |
| 20260901040123 | 75 | 239 | 0.0 | 1.0 | 0.00 | 0.00 | 0.00 | 86 | 1016.5 |
| 20260901035621 | 76 | 248 | 1.0 | 2.0 | 0.00 | 0.07 | 0.07 | 86 | 1016.4 |
| 20260901035120 | 76 | 276 | 0.0 | 2.0 | 0.00 | 0.07 | 0.07 | 86 | 1016.4 |
| 20260901034615 | 76 | 242 | 0.0 | 1.0 | 0.00 | 0.07 | 0.07 | 86 | 1016.5 |
| 20260901034109 | 76 | 316 | 2.0 | 2.0 | 0.00 | 0.07 | 0.07 | 86 | 1016.3 |
| 20260901033608 | 75 | 229 | 0.0 | 1.0 | 0.00 | 0.07 | 0.07 | 86 | 1016.2 |
| 20260901033103 | 75 | 239 | 0.0 | 1.0 | 0.00 | 0.07 | 0.07 | 86 | 1016.5 |
| 20260901032602 | 75 | 245 | 0.0 | 1.0 | 0.00 | 0.07 | 0.07 | 86 | 1016.4 |
| 20260901032057 | 75 | 239 | 0.0 | 0.0 | 0.00 | 0.07 | 0.07 | 86 | 1016.6 |
| 20260901031552 | 75 | 248 | 1.0 | 3.0 | 0.00 | 0.07 | 0.07 | 86 | 1016.4 |
| 20260901031048 | 75 | 239 | 0.0 | 1.0 | 0.00 | 0.07 | 0.07 | 86 | 1016.6 |
| 20260901030548 | 75 | 284 | 0.0 | 1.0 | 0.00 | 0.07 | 0.07 | 86 | 1016.4 |
| 20260901030042 | 75 | 245 | 0.0 | 1.0 | 0.00 | 0.07 | 0.07 | 86 | 1016.5 |
| 20260901025536 | 74 | 227 | 1.0 | 1.0 | 0.00 | 0.07 | 0.07 | 86 | 1016.5 |
| 20260901025031 | 74 | 239 | 0.0 | 1.0 | 0.00 | 0.07 | 0.07 | 86 | 1016.2 |
| 20260901024526 | 74 | 242 | 0.0 | 1.0 | 0.00 | 0.07 | 0.07 | 86 | 1016.4 |
| 20260901024025 | 74 | 268 | 1.0 | 2.0 | 0.00 | 0.07 | 0.07 | 87 | 1016.6 |
| 20260901023519 | 73 | 235 | 0.0 | 0.0 | 0.00 | 0.07 | 0.07 | 87 | 1016.6 |
| 20260901023014 | 73 | 291 | 1.0 | 2.0 | 0.00 | 0.07 | 0.07 | 87 | 1016.6 |
| 20260901022509 | 73 | 239 | 0.0 | 1.0 | 0.00 | 0.07 | 0.07 | 88 | 1016.5 |
| 20260901022004 | 72 | 245 | 0.0 | 0.0 | 0.00 | 0.07 | 0.07 | 89 | 1016.6 |
| 20260901021500 | 72 | 248 | 0.0 | 0.0 | 0.00 | 0.07 | 0.07 | 89 | 1016.9 |
| 20260901020955 | 72 | 245 | 0.0 | 0.0 | 0.00 | 0.07 | 0.07 | 90 | 1016.4 |
| 20260901020450 | 72 | 242 | 0.0 | 0.0 | 0.00 | 0.07 | 0.07 | 90 | 1016.4 |
| 20260901015949 | 72 | 242 | 0.0 | 0.0 | 0.00 | 0.07 | 0.07 | 90 | 1016.5 |
| 20260901015446 | 72 | 239 | 0.0 | 0.0 | 0.00 | 0.07 | 0.07 | 90 | 1016.3 |
| 20260901014945 | 72 | 238 | 0.0 | 0.0 | 0.00 | 0.07 | 0.07 | 90 | 1016.4 |
| 20260901014441 | 72 | 230 | 0.0 | 0.0 | 0.00 | 0.07 | 0.07 | 90 | 1016.3 |
| 20260901013937 | 72 | 235 | 0.0 | 0.0 | 0.00 | 0.07 | 0.07 | 90 | 1016.6 |
| 20260901013432 | 72 | 231 | 0.0 | 1.0 | 0.00 | 0.07 | 0.07 | 90 | 1016.6 |
| 20260901012928 | 72 | 239 | 0.0 | 0.0 | 0.00 | 0.07 | 0.07 | 90 | 1016.5 |
| 20260901012422 | 72 | 239 | 0.0 | 0.0 | 0.00 | 0.07 | 0.07 | 90 | 1016.4 |
| 20260901011918 | 72 | 239 | 0.0 | 0.0 | 0.00 | 0.07 | 0.07 | 89 | 1016.4 |
| 20260901011414 | 73 | 247 | 0.0 | 0.0 | 0.00 | 0.07 | 0.07 | 89 | 1016.6 |
| 20260901010912 | 73 | 249 | 0.0 | 1.0 | 0.00 | 0.07 | 0.07 | 89 | 1016.6 |
| 20260901010407 | 73 | 248 | 0.0 | 1.0 | 0.00 | 0.07 | 0.07 | 88 | 1016.4 |
| 20260901005906 | 73 | 256 | 0.0 | 1.0 | 0.00 | 0.07 | 0.07 | 89 | 1016.2 |
| 20260901005401 | 73 | 239 | 0.0 | 0.0 | 0.00 | 0.07 | 0.07 | 89 | 1016.2 |
| 20260901004856 | 73 | 266 | 0.0 | 1.0 | 0.00 | 0.07 | 0.07 | 89 | 1016.0 |
| 20260901004355 | 73 | 242 | 0.0 | 0.0 | 0.00 | 0.07 | 0.07 | 89 | 1016.2 |
| 20260901003850 | 73 | 239 | 0.0 | 0.0 | 0.00 | 0.07 | 0.07 | 89 | 1015.9 |
| 20260901003345 | 73 | 252 | 0.0 | 1.0 | 0.00 | 0.07 | 0.07 | 89 | 1016.0 |
| 20260901002844 | 73 | 227 | 0.0 | 1.0 | 0.00 | 0.07 | 0.07 | 89 | 1015.8 |
| 20260901002343 | 73 | 193 | 0.0 | 2.0 | 0.00 | 0.07 | 0.07 | 90 | 1015.7 |
| 20260901001838 | 73 | 231 | 0.0 | 0.0 | 0.00 | 0.07 | 0.07 | 90 | 1015.8 |
| 20260901001333 | 73 | 239 | 0.0 | 0.0 | 0.00 | 0.07 | 0.07 | 89 | 1016.0 |
| 20260901000829 | 73 | 238 | 0.0 | 0.0 | 0.00 | 0.07 | 0.07 | 89 | 1016.1 |
| 20260901000324 | 73 | 239 | 0.0 | 0.0 | 0.00 | 0.07 | 0.07 | 89 | 1016.1 |
| 20260831235822 | 73 | 239 | 0.0 | 0.0 | 0.00 | 0.07 | 0.07 | 88 | 1016.1 |
| 20260831235318 | 73 | 256 | 1.0 | 1.0 | 0.00 | 0.07 | 0.07 | 88 | 1016.0 |
| 20260831234813 | 73 | 258 | 1.0 | 1.0 | 0.00 | 0.07 | 0.07 | 88 | 1016.2 |
| 20260831234313 | 73 | 234 | 0.0 | 1.0 | 0.00 | 0.07 | 0.07 | 88 | 1016.1 |
| 20260831233808 | 74 | 255 | 0.0 | 1.0 | 0.00 | 0.07 | 0.07 | 88 | 1016.1 |
| 20260831233304 | 74 | 216 | 0.0 | 1.0 | 0.00 | 0.07 | 0.07 | 88 | 1016.0 |
| 20260831232759 | 74 | 215 | 0.0 | 1.0 | 0.00 | 0.07 | 0.07 | 88 | 1016.1 |
| 20260831232255 | 74 | 230 | 1.0 | 1.0 | 0.00 | 0.07 | 0.07 | 89 | 1016.2 |
| 20260831231751 | 74 | 234 | 0.0 | 2.0 | 0.00 | 0.07 | 0.07 | 90 | 1016.3 |
| 20260831231247 | 74 | 244 | 0.0 | 1.0 | 0.00 | 0.07 | 0.07 | 91 | 1016.3 |
| 20260831230742 | 74 | 222 | 1.0 | 2.0 | 0.00 | 0.07 | 0.07 | 91 | 1016.2 |
| 20260831230237 | 74 | 246 | 0.0 | 1.0 | 0.00 | 0.07 | 0.07 | 91 | 1016.2 |
| 20260831225736 | 74 | 248 | 0.0 | 1.0 | 0.00 | 0.07 | 0.07 | 91 | 1016.3 |
| 20260831225232 | 74 | 230 | 0.0 | 0.0 | 0.00 | 0.07 | 0.07 | 91 | 1016.5 |
| 20260831224726 | 74 | 255 | 1.0 | 2.0 | 0.05 | 0.07 | 0.07 | 91 | 1016.3 |
| 20260831224222 | 75 | 253 | 1.0 | 1.0 | 0.05 | 0.07 | 0.07 | 90 | 1016.4 |
| 20260831223717 | 75 | 209 | 1.0 | 1.0 | 0.00 | 0.06 | 0.06 | 90 | 1016.9 |
| 20260831223214 | 75 | 239 | 1.0 | 3.0 | 0.00 | 0.06 | 0.06 | 90 | 1016.7 |
| 20260831222709 | 75 | 231 | 0.0 | 2.0 | 0.00 | 0.06 | 0.06 | 90 | 1016.9 |
| 20260831222205 | 75 | 185 | 1.0 | 3.0 | 0.00 | 0.06 | 0.06 | 90 | 1016.5 |
| 20260831221700 | 76 | 263 | 1.0 | 2.0 | 0.07 | 0.06 | 0.06 | 91 | 1017.2 |
| 20260831221155 | 76 | 210 | 0.0 | 0.0 | 0.07 | 0.06 | 0.06 | 91 | 1017.6 |
| 20260831220650 | 76 | 224 | 0.0 | 2.0 | 0.05 | 0.05 | 0.05 | 91 | 1017.7 |
| 20260831220145 | 76 | 207 | 0.0 | 1.0 | 0.05 | 0.05 | 0.05 | 91 | 1017.6 |
| 20260831215640 | 76 | 240 | 1.0 | 1.0 | 0.00 | 0.04 | 0.04 | 91 | 1017.7 |
| 20260831215136 | 77 | 244 | 0.0 | 1.0 | 0.07 | 0.04 | 0.04 | 90 | 1017.7 |
| 20260831214633 | 77 | 249 | 0.0 | 0.0 | 0.19 | 0.04 | 0.04 | 88 | 1018.1 |
| 20260831214129 | 78 | 246 | 0.0 | 3.0 | 0.19 | 0.03 | 0.03 | 86 | 1018.1 |
| 20260831213626 | 79 | 312 | 1.0 | 2.0 | 0.07 | 0.01 | 0.01 | 83 | 1018.0 |
| 20260831213121 | 80 | 172 | 1.0 | 2.0 | 0.00 | 0.00 | 0.00 | 79 | 1017.9 |
| 20260831212617 | 81 | 280 | 1.0 | 2.0 | 0.00 | 0.00 | 0.00 | 75 | 1017.9 |
| 20260831212113 | 82 | 218 | 1.0 | 3.0 | 0.00 | 0.00 | 0.00 | 73 | 1018.1 |
| 20260831211612 | 83 | 254 | 0.0 | 2.0 | 0.00 | 0.00 | 0.00 | 71 | 1018.0 |
| 20260831211112 | 83 | 279 | 1.0 | 3.0 | 0.00 | 0.00 | 0.00 | 68 | 1018.1 |
| 20260831210607 | 84 | 214 | 0.0 | 1.0 | 0.00 | 0.00 | 0.00 | 67 | 1018.0 |
| 20260831210103 | 84 | 234 | 1.0 | 1.0 | 0.00 | 0.00 | 0.00 | 66 | 1018.1 |
| 20260831205602 | 85 | 254 | 3.0 | 3.0 | 0.00 | 0.00 | 0.00 | 64 | 1018.2 |
| 20260831205059 | 85 | 248 | 0.0 | 2.0 | 0.00 | 0.00 | 0.00 | 65 | 1018.3 |
| 20260831204553 | 86 | 325 | 0.0 | 1.0 | 0.00 | 0.00 | 0.00 | 63 | 1018.2 |
| 20260831204051 | 85 | 233 | 0.0 | 2.0 | 0.00 | 0.00 | 0.00 | 63 | 1018.0 |
| 20260831203546 | 86 | 236 | 0.0 | 1.0 | 0.00 | 0.00 | 0.00 | 65 | 1017.7 |
| 20260831203045 | 86 | 173 | 1.0 | 5.0 | 0.00 | 0.00 | 0.00 | 65 | 1017.8 |
| 20260831202544 | 85 | 169 | 3.0 | 3.0 | 0.00 | 0.00 | 0.00 | 65 | 1018.0 |
| 20260831202044 | 85 | 180 | 1.0 | 5.0 | 0.00 | 0.00 | 0.00 | 64 | 1017.8 |
| 20260831201543 | 86 | 174 | 2.0 | 5.0 | 0.00 | 0.00 | 0.00 | 64 | 1017.5 |
| 20260831201039 | 87 | 198 | 2.0 | 5.0 | 0.00 | 0.00 | 0.00 | 62 | 1017.7 |
| 20260831200534 | 87 | 204 | 1.0 | 1.0 | 0.00 | 0.00 | 0.00 | 62 | 1017.8 |
| 20260831200035 | 87 | 189 | 2.0 | 3.0 | 0.00 | 0.00 | 0.00 | 62 | 1017.9 |
| 20260831195530 | 87 | 227 | 1.0 | 2.0 | 0.00 | 0.00 | 0.00 | 58 | 1017.9 |
| 20260831195025 | 86 | 231 | 0.0 | 3.0 | 0.00 | 0.00 | 0.00 | 61 | 1018.0 |
| 20260831194520 | 87 | 252 | 1.0 | 1.0 | 0.00 | 0.00 | 0.00 | 59 | 1018.1 |
| 20260831194020 | 88 | 201 | 2.0 | 5.0 | 0.00 | 0.00 | 0.00 | 60 | 1018.1 |
| 20260831193516 | 88 | 257 | 0.0 | 1.0 | 0.00 | 0.00 | 0.00 | 58 | 1018.1 |
| 20260831193011 | 87 | 103 | 0.0 | 0.0 | 0.00 | 0.00 | 0.00 | 60 | 1018.2 |
| 20260831192506 | 87 | 211 | 1.0 | 2.0 | 0.00 | 0.00 | 0.00 | 60 | 1018.2 |
| 20260831192000 | 86 | 315 | 1.0 | 2.0 | 0.00 | 0.00 | 0.00 | 61 | 1018.1 |
| 20260831191457 | 87 | 300 | 1.0 | 3.0 | 0.00 | 0.00 | 0.00 | 60 | 1018.1 |
| 20260831190953 | 87 | 298 | 2.0 | 3.0 | 0.00 | 0.00 | 0.00 | 61 | 1018.2 |
| 20260831190448 | 87 | 235 | 0.0 | 2.0 | 0.00 | 0.00 | 0.00 | 62 | 1017.9 |
| 20260831185946 | 87 | 274 | 0.0 | 1.0 | 0.00 | 0.00 | 0.00 | 62 | 1018.3 |
| 20260831185443 | 88 | 312 | 2.0 | 3.0 | 0.00 | 0.00 | 0.00 | 60 | 1018.2 |
| 20260831184942 | 87 | 354 | 0.0 | 1.0 | 0.00 | 0.00 | 0.00 | 60 | 1018.1 |
| 20260831184437 | 87 | 260 | 2.0 | 2.0 | 0.00 | 0.00 | 0.00 | 61 | 1018.0 |
| 20260831183933 | 87 | 248 | 1.0 | 5.0 | 0.00 | 0.00 | 0.00 | 62 | 1018.1 |
| 20260831183432 | 86 | 262 | 1.0 | 2.0 | 0.00 | 0.00 | 0.00 | 63 | 1018.2 |
| 20260831182932 | 86 | 267 | 2.0 | 3.0 | 0.00 | 0.00 | 0.00 | 64 | 1018.3 |
| 20260831182427 | 85 | 228 | 1.0 | 2.0 | 0.00 | 0.00 | 0.00 | 64 | 1018.1 |
| 20260831181922 | 84 | 273 | 1.0 | 2.0 | 0.00 | 0.00 | 0.00 | 65 | 1018.1 |
| 20260831181417 | 84 | 281 | 0.0 | 1.0 | 0.00 | 0.00 | 0.00 | 67 | 1018.4 |
| 20260831180912 | 85 | 163 | 3.0 | 3.0 | 0.00 | 0.00 | 0.00 | 64 | 1018.5 |
| 20260831180406 | 85 | 262 | 1.0 | 2.0 | 0.00 | 0.00 | 0.00 | 66 | 1018.4 |
| 20260831175905 | 84 | 237 | 1.0 | 1.0 | 0.00 | 0.00 | 0.00 | 71 | 1018.5 |
| 20260831175402 | 82 | 230 | 0.0 | 1.0 | 0.00 | 0.00 | 0.00 | 72 | 1018.4 |
| 20260831174858 | 81 | 257 | 0.0 | 0.0 | 0.00 | 0.00 | 0.00 | 73 | 1018.8 |
| 20260831174353 | 80 | 271 | 0.0 | 1.0 | 0.00 | 0.00 | 0.00 | 74 | 1018.8 |
| 20260831173851 | 80 | 307 | 1.0 | 2.0 | 0.00 | 0.00 | 0.00 | 75 | 1018.8 |
| 20260831173346 | 80 | 277 | 1.0 | 1.0 | 0.00 | 0.00 | 0.00 | 76 | 1018.4 |
| 20260831172841 | 80 | 13 | 0.0 | 0.0 | 0.00 | 0.00 | 0.00 | 76 | 1018.3 |
| 20260831172337 | 79 | 254 | 0.0 | 0.0 | 0.00 | 0.00 | 0.00 | 75 | 1018.4 |
| 20260831171836 | 80 | 257 | 0.0 | 1.0 | 0.00 | 0.00 | 0.00 | 77 | 1018.2 |
| 20260831171333 | 80 | 235 | 0.0 | 1.0 | 0.00 | 0.00 | 0.00 | 76 | 1018.6 |
| 20260831170830 | 80 | 238 | 0.0 | 0.0 | 0.00 | 0.00 | 0.00 | 76 | 1019.0 |
| 20260831170326 | 80 | 252 | 0.0 | 0.0 | 0.00 | 0.00 | 0.00 | 77 | 1019.1 |
| 20260831165822 | 80 | 258 | 0.0 | 0.0 | 0.00 | 0.00 | 0.00 | 77 | 1019.3 |
| 20260831165318 | 79 | 259 | 0.0 | 1.0 | 0.00 | 0.00 | 0.00 | 78 | 1019.5 |
| 20260831164814 | 79 | 236 | 0.0 | 0.0 | 0.00 | 0.00 | 0.00 | 78 | 1019.5 |
| 20260831164310 | 79 | 258 | 1.0 | 1.0 | 0.00 | 0.00 | 0.00 | 77 | 1019.8 |
| 20260831163805 | 79 | 280 | 0.0 | 0.0 | 0.00 | 0.00 | 0.00 | 77 | 1019.8 |
| 20260831163301 | 80 | 254 | 1.0 | 1.0 | 0.00 | 0.00 | 0.00 | 76 | 1019.7 |
| 20260831162759 | 81 | 317 | 0.0 | 2.0 | 0.00 | 0.00 | 0.00 | 74 | 1020.0 |
| 20260831162254 | 81 | 283 | 1.0 | 2.0 | 0.00 | 0.00 | 0.00 | 72 | 1019.7 |
| 20260831161753 | 81 | 258 | 0.0 | 0.0 | 0.00 | 0.00 | 0.00 | 72 | 1019.7 |
| 20260831161250 | 81 | 256 | 0.0 | 1.0 | 0.00 | 0.00 | 0.00 | 71 | 1019.7 |
| 20260831160750 | 81 | 260 | 1.0 | 2.0 | 0.00 | 0.00 | 0.00 | 71 | 1019.7 |
| 20260831160244 | 81 | 268 | 2.0 | 5.0 | 0.00 | 0.00 | 0.00 | 69 | 1019.8 |
| 20260831155739 | 82 | 291 | 0.0 | 1.0 | 0.00 | 0.00 | 0.00 | 70 | 1019.6 |
| 20260831155234 | 82 | 251 | 1.0 | 3.0 | 0.00 | 0.00 | 0.00 | 70 | 1019.6 |
| 20260831154730 | 82 | 270 | 1.0 | 3.0 | 0.00 | 0.00 | 0.00 | 70 | 1019.7 |
| 20260831154226 | 81 | 224 | 1.0 | 3.0 | 0.00 | 0.00 | 0.00 | 71 | 1019.4 |
| 20260831153725 | 81 | 259 | 2.0 | 5.0 | 0.00 | 0.00 | 0.00 | 72 | 1019.4 |
| 20260831153221 | 81 | 248 | 0.0 | 1.0 | 0.00 | 0.00 | 0.00 | 74 | 1019.5 |
| 20260831152716 | 80 | 265 | 1.0 | 5.0 | 0.00 | 0.00 | 0.00 | 74 | 1019.3 |
| 20260831152213 | 79 | 251 | 2.0 | 3.0 | 0.00 | 0.00 | 0.00 | 75 | 1019.3 |
| 20260831151712 | 80 | 287 | 1.0 | 3.0 | 0.00 | 0.00 | 0.00 | 75 | 1019.3 |
| 20260831151207 | 80 | 248 | 0.0 | 3.0 | 0.00 | 0.00 | 0.00 | 76 | 1019.1 |
| 20260831150702 | 79 | 198 | 1.0 | 2.0 | 0.00 | 0.00 | 0.00 | 77 | 1019.1 |
| 20260831150157 | 78 | 276 | 3.0 | 6.0 | 0.00 | 0.00 | 0.00 | 78 | 1019.1 |
| 20260831145656 | 78 | 263 | 0.0 | 1.0 | 0.00 | 0.00 | 0.00 | 79 | 1019.0 |
| 20260831145153 | 77 | 256 | 1.0 | 2.0 | 0.00 | 0.00 | 0.00 | 80 | 1019.0 |
| 20260831144648 | 77 | 259 | 1.0 | 3.0 | 0.00 | 0.00 | 0.00 | 80 | 1019.2 |
| 20260831144144 | 77 | 261 | 0.0 | 1.0 | 0.00 | 0.00 | 0.00 | 81 | 1019.2 |
| 20260831143643 | 77 | 252 | 0.0 | 1.0 | 0.00 | 0.00 | 0.00 | 81 | 1019.2 |
| 20260831143139 | 77 | 272 | 1.0 | 1.0 | 0.00 | 0.00 | 0.00 | 80 | 1019.2 |
| 20260831142635 | 77 | 306 | 2.0 | 2.0 | 0.00 | 0.00 | 0.00 | 80 | 1018.9 |
| 20260831142130 | 77 | 247 | 0.0 | 2.0 | 0.00 | 0.00 | 0.00 | 81 | 1019.0 |
| 20260831141629 | 77 | 252 | 1.0 | 1.0 | 0.00 | 0.00 | 0.00 | 81 | 1019.1 |
| 20260831141124 | 76 | 258 | 1.0 | 3.0 | 0.00 | 0.00 | 0.00 | 81 | 1018.9 |
| 20260831140623 | 76 | 252 | 0.0 | 2.0 | 0.00 | 0.00 | 0.00 | 82 | 1018.8 |
| 20260831140118 | 76 | 247 | 0.0 | 2.0 | 0.00 | 0.00 | 0.00 | 82 | 1018.8 |
| 20260831135616 | 76 | 246 | 0.0 | 0.0 | 0.00 | 0.00 | 0.00 | 82 | 1019.0 |
| 20260831135112 | 76 | 266 | 1.0 | 1.0 | 0.00 | 0.00 | 0.00 | 83 | 1018.8 |
| 20260831134607 | 76 | 262 | 2.0 | 2.0 | 0.00 | 0.00 | 0.00 | 83 | 1019.0 |
| 20260831134102 | 76 | 249 | 0.0 | 2.0 | 0.00 | 0.00 | 0.00 | 83 | 1018.8 |
| 20260831133601 | 75 | 232 | 1.0 | 1.0 | 0.00 | 0.00 | 0.00 | 84 | 1018.9 |
| 20260831133056 | 75 | 257 | 0.0 | 0.0 | 0.00 | 0.00 | 0.00 | 85 | 1019.0 |
| 20260831132553 | 75 | 258 | 0.0 | 0.0 | 0.00 | 0.00 | 0.00 | 85 | 1018.8 |
| 20260831132051 | 74 | 254 | 0.0 | 1.0 | 0.00 | 0.00 | 0.00 | 85 | 1019.0 |
| 20260831131546 | 74 | 245 | 0.0 | 1.0 | 0.00 | 0.00 | 0.00 | 87 | 1018.8 |
| 20260831131043 | 74 | 252 | 0.0 | 1.0 | 0.00 | 0.00 | 0.00 | 87 | 1018.9 |
| 20260831130538 | 73 | 250 | 0.0 | 0.0 | 0.00 | 0.00 | 0.00 | 88 | 1018.8 |
| 20260831130033 | 73 | 252 | 0.0 | 0.0 | 0.00 | 0.00 | 0.00 | 89 | 1018.8 |
| 20260831125526 | 73 | 252 | 0.0 | 0.0 | 0.00 | 0.00 | 0.00 | 89 | 1018.8 |
| 20260831125022 | 72 | 261 | 0.0 | 0.0 | 0.00 | 0.00 | 0.00 | 89 | 1018.7 |
| 20260831124519 | 72 | 259 | 0.0 | 0.0 | 0.00 | 0.00 | 0.00 | 90 | 1018.8 |
| 20260831124014 | 72 | 256 | 0.0 | 0.0 | 0.00 | 0.00 | 0.00 | 90 | 1018.8 |
| 20260831123513 | 72 | 252 | 0.0 | 0.0 | 0.00 | 0.00 | 0.00 | 90 | 1018.7 |
| 20260831123008 | 72 | 256 | 0.0 | 0.0 | 0.00 | 0.00 | 0.00 | 90 | 1018.5 |
| 20260831122503 | 72 | 250 | 0.0 | 0.0 | 0.00 | 0.00 | 0.00 | 90 | 1018.7 |
| 20260831121958 | 72 | 247 | 0.0 | 0.0 | 0.00 | 0.00 | 0.00 | 90 | 1018.6 |
| 20260831121453 | 72 | 250 | 0.0 | 0.0 | 0.00 | 0.00 | 0.00 | 90 | 1018.5 |
| 20260831120949 | 72 | 248 | 0.0 | 0.0 | 0.00 | 0.00 | 0.00 | 90 | 1018.6 |
| 20260831120448 | 72 | 241 | 0.0 | 0.0 | 0.00 | 0.00 | 0.00 | 90 | 1018.5 |
| 20260831115943 | 72 | 245 | 0.0 | 0.0 | 0.00 | 0.00 | 0.00 | 90 | 1018.9 |
| 20260831115440 | 72 | 248 | 0.0 | 0.0 | 0.00 | 0.00 | 0.00 | 90 | 1018.7 |
| 20260831114940 | 72 | 246 | 0.0 | 0.0 | 0.00 | 0.00 | 0.00 | 90 | 1018.7 |
| 20260831114438 | 72 | 249 | 0.0 | 0.0 | 0.00 | 0.00 | 0.00 | 90 | 1018.7 |
| 20260831113934 | 72 | 241 | 0.0 | 0.0 | 0.00 | 0.00 | 0.00 | 90 | 1018.7 |
| 20260831113433 | 72 | 243 | 0.0 | 0.0 | 0.00 | 0.00 | 0.00 | 90 | 1018.7 |
| 20260831112929 | 71 | 246 | 0.0 | 0.0 | 0.00 | 0.00 | 0.00 | 90 | 1018.8 |
| 20260831112428 | 71 | 250 | 0.0 | 0.0 | 0.00 | 0.00 | 0.00 | 90 | 1018.7 |
| 20260831111924 | 71 | 243 | 0.0 | 0.0 | 0.00 | 0.00 | 0.00 | 90 | 1018.5 |
| 20260831111420 | 71 | 249 | 0.0 | 0.0 | 0.00 | 0.00 | 0.00 | 90 | 1018.8 |
| 20260831110915 | 71 | 241 | 0.0 | 0.0 | 0.00 | 0.00 | 0.00 | 90 | 1018.5 |
| 20260831110415 | 72 | 242 | 0.0 | 0.0 | 0.00 | 0.00 | 0.00 | 89 | 1018.5 |
| 20260831105914 | 72 | 238 | 0.0 | 1.0 | 0.00 | 0.00 | 0.00 | 89 | 1018.5 |
| 20260831105410 | 72 | 239 | 0.0 | 0.0 | 0.00 | 0.00 | 0.00 | 90 | 1018.7 |
| 20260831104905 | 72 | 239 | 0.0 | 0.0 | 0.00 | 0.00 | 0.00 | 90 | 1018.7 |
| 20260831104401 | 71 | 242 | 0.0 | 1.0 | 0.00 | 0.00 | 0.00 | 90 | 1018.6 |
| 20260831103856 | 71 | 239 | 0.0 | 0.0 | 0.00 | 0.00 | 0.00 | 90 | 1018.6 |
| 20260831103352 | 71 | 239 | 0.0 | 1.0 | 0.00 | 0.00 | 0.00 | 90 | 1018.7 |
| 20260831102847 | 71 | 242 | 0.0 | 2.0 | 0.00 | 0.00 | 0.00 | 91 | 1018.6 |
| 20260831102341 | 71 | 242 | 0.0 | 0.0 | 0.00 | 0.00 | 0.00 | 91 | 1018.5 |
| 20260831101837 | 71 | 249 | 0.0 | 1.0 | 0.00 | 0.00 | 0.00 | 92 | 1018.3 |
| 20260831101332 | 71 | 241 | 0.0 | 0.0 | 0.00 | 0.00 | 0.00 | 92 | 1018.5 |
| 20260831100829 | 71 | 239 | 0.0 | 0.0 | 0.00 | 0.00 | 0.00 | 92 | 1018.3 |
| 20260831100324 | 71 | 235 | 0.0 | 1.0 | 0.00 | 0.00 | 0.00 | 92 | 1018.4 |
| 20260831095823 | 71 | 236 | 0.0 | 0.0 | 0.00 | 0.00 | 0.00 | 92 | 1018.4 |
| 20260831095317 | 71 | 242 | 0.0 | 0.0 | 0.00 | 0.00 | 0.00 | 92 | 1018.5 |
| 20260831094813 | 70 | 220 | 0.0 | 0.0 | 0.00 | 0.00 | 0.00 | 92 | 1018.4 |
| 20260831094308 | 70 | 239 | 0.0 | 0.0 | 0.00 | 0.00 | 0.00 | 93 | 1018.4 |
| 20260831093804 | 70 | 242 | 0.0 | 1.0 | 0.00 | 0.00 | 0.00 | 93 | 1018.4 |
| 20260831093304 | 70 | 245 | 0.0 | 0.0 | 0.00 | 0.00 | 0.00 | 93 | 1018.5 |
| 20260831092801 | 70 | 235 | 0.0 | 0.0 | 0.00 | 0.00 | 0.00 | 93 | 1018.6 |
| 20260831092256 | 70 | 234 | 0.0 | 0.0 | 0.00 | 0.00 | 0.00 | 93 | 1018.5 |
| 20260831091755 | 70 | 235 | 0.0 | 0.0 | 0.00 | 0.00 | 0.00 | 94 | 1018.3 |
| 20260831091252 | 70 | 239 | 0.0 | 0.0 | 0.00 | 0.00 | 0.00 | 94 | 1018.5 |
| 20260831090747 | 70 | 235 | 0.0 | 0.0 | 0.00 | 0.00 | 0.00 | 94 | 1018.4 |
| 20260831090243 | 70 | 234 | 0.0 | 0.0 | 0.00 | 0.00 | 0.00 | 94 | 1018.3 |
| 20260831085739 | 70 | 235 | 0.0 | 0.0 | 0.00 | 0.00 | 0.00 | 94 | 1018.4 |
| 20260831085233 | 70 | 242 | 0.0 | 1.0 | 0.00 | 0.00 | 0.00 | 94 | 1018.4 |
| 20260831084728 | 70 | 244 | 0.0 | 0.0 | 0.00 | 0.00 | 0.00 | 94 | 1018.3 |
| 20260831084225 | 70 | 235 | 0.0 | 0.0 | 0.00 | 0.00 | 0.00 | 94 | 1018.0 |
| 20260831083720 | 69 | 235 | 0.0 | 0.0 | 0.00 | 0.00 | 0.00 | 94 | 1018.0 |
| 20260831083210 | 69 | 236 | 0.0 | 0.0 | 0.00 | 0.00 | 0.00 | 94 | 1017.9 |
| 20260831082709 | 69 | 239 | 0.0 | 0.0 | 0.00 | 0.00 | 0.00 | 94 | 1018.0 |
| 20260831082205 | 69 | 234 | 0.0 | 0.0 | 0.00 | 0.00 | 0.00 | 94 | 1018.3 |
| 20260831081704 | 69 | 239 | 0.0 | 0.0 | 0.00 | 0.00 | 0.00 | 94 | 1018.1 |
| 20260831081155 | 69 | 248 | 0.0 | 0.0 | 0.00 | 0.00 | 0.00 | 94 | 1018.2 |
| 20260831080650 | 69 | 235 | 0.0 | 0.0 | 0.00 | 0.00 | 0.00 | 94 | 1017.9 |
| 20260831080144 | 69 | 229 | 0.0 | 0.0 | 0.00 | 0.00 | 0.00 | 94 | 1018.2 |
| 20260831075641 | 69 | 225 | 0.0 | 1.0 | 0.00 | 0.00 | 0.00 | 94 | 1018.3 |
| 20260831075136 | 69 | 235 | 0.0 | 0.0 | 0.00 | 0.00 | 0.00 | 94 | 1018.4 |
| 20260831074635 | 69 | 235 | 0.0 | 0.0 | 0.00 | 0.00 | 0.00 | 94 | 1018.5 |
| 20260831074130 | 69 | 235 | 0.0 | 0.0 | 0.00 | 0.00 | 0.00 | 93 | 1018.4 |
| 20260831073625 | 70 | 252 | 0.0 | 0.0 | 0.00 | 0.00 | 0.00 | 93 | 1018.6 |
| 20260831073124 | 70 | 245 | 0.0 | 0.0 | 0.00 | 0.00 | 0.00 | 93 | 1018.6 |
| 20260831072620 | 70 | 235 | 0.0 | 0.0 | 0.00 | 0.00 | 0.00 | 93 | 1018.7 |
| 20260831072116 | 70 | 235 | 0.0 | 0.0 | 0.00 | 0.00 | 0.00 | 93 | 1018.7 |
| 20260831071614 | 70 | 235 | 0.0 | 0.0 | 0.00 | 0.00 | 0.00 | 93 | 1018.8 |
| 20260831071110 | 70 | 239 | 0.0 | 0.0 | 0.00 | 0.00 | 0.00 | 93 | 1018.6 |
| 20260831070609 | 70 | 242 | 0.0 | 0.0 | 0.00 | 0.00 | 0.00 | 93 | 1018.9 |
| 20260831070104 | 70 | 245 | 0.0 | 0.0 | 0.00 | 0.00 | 0.00 | 93 | 1018.9 |
| 20260831065602 | 70 | 242 | 0.0 | 1.0 | 0.00 | 0.00 | 0.00 | 93 | 1019.0 |
| 20260831065056 | 70 | 239 | 0.0 | 0.0 | 0.00 | 0.00 | 0.00 | 93 | 1018.9 |
| 20260831064551 | 70 | 239 | 0.0 | 0.0 | 0.00 | 0.00 | 0.00 | 93 | 1018.6 |
| 20260831064047 | 70 | 232 | 0.0 | 0.0 | 0.00 | 0.00 | 0.00 | 92 | 1018.9 |